[[{"header":{"parameterUnit":"m.s-1","parameterCategory":1,"la1":30.2991,"la2":30.254,"lo1":-89.0895,"lo2":-89.0444,"dy":0.0017,"dx":0.0017,"nx":28,"ny":28,"refTime":"2024-12-17T03:00:00:Z","depth":0,"parameterNumber":2,"parameterNumberName":"U-component_of_WINDS"},"data":[0,0,0,0,0,0,0,0,0,0,0,0,0,0,0,0,0,0,0,0,0,0,0,0,0,0,0,0,0,0,0,0,0,0,0,0,0,0,0,0,0,0,0,0,0,0,0,0,0,0,0,0,0,0,0,0,0,0,-2.3157,-2.3156,0,-2.3134,-2.3134,-2.3134,-2.3037,-2.3035,-2.3033,-2.3031,-2.3009,-2.3011,-2.3012,0,0,0,0,0,0,0,0,0,0,0,0,0,-2.3117,-2.3119,-2.3157,-2.3156,-2.3156,-2.3134,-2.3134,-2.3134,-2.3038,-2.3035,-2.3032,-2.303,-2.3009,-2.3011,-2.3013,0,0,0,0,0,0,0,0,0,0,0,0,0,-2.3119,-2.3119,-2.3157,-2.3106,-2.3101,-2.3135,-2.3134,-2.3134,-2.3038,-2.3035,-2.3032,-2.3028,-2.3008,-2.3011,-2.3013,-2.3095,0,0,-2.302,-2.3021,0,0,0,0,0,0,0,0,-2.3119,-2.312,-2.3113,-2.3109,-2.3104,-2.3085,-2.3112,-2.3121,-2.3039,-2.3062,-2.3031,-2.3027,-2.3037,-2.3037,-2.304,-2.3094,-2.3093,-2.302,-2.3021,-2.3022,-2.3023,0,0,0,0,0,0,0,-2.3119,-2.3121,-2.3148,-2.3113,-2.3108,-2.3084,-2.3081,-2.3114,-2.3069,-2.306,-2.3053,-2.3051,-2.3034,-2.3038,-2.3039,-2.3092,-2.302,-2.3022,-2.3023,-2.3024,-2.3213,-2.3217,0,0,0,0,0,0,-2.3126,-2.3121,-2.3149,-2.3147,-2.3103,-2.3088,-2.3084,-2.3095,-2.3068,-2.3061,-2.3054,-2.3047,-2.3036,-2.3037,-2.3038,-2.3133,-2.3022,-2.3025,-2.3026,-2.3209,-2.3214,-2.3218,0,0,0,0,0,0,-2.3125,-2.3129,-2.3149,-2.3132,-2.3133,-2.3092,-2.3105,-2.3096,-2.31,-2.3064,-2.3056,-2.3067,-2.3034,-2.3035,-2.3082,-2.3131,-2.3026,-2.3028,-2.3205,-2.3211,-2.3216,-2.3324,0,0,0,0,0,0,-2.3125,-2.313,-2.316,-2.3134,-2.3134,-2.3193,-2.3108,-2.3098,-2.3104,-2.3094,-2.3074,-2.3067,-2.3031,-2.3079,-2.3084,-2.3132,-2.3029,-2.3201,-2.3208,-2.3214,-2.3316,-2.3332,-2.3347,0,0,0,0,0,-2.3124,-2.3191,-2.3162,-2.3166,-2.3171,-2.3196,-2.3196,-2.3153,-2.3109,-2.3139,-2.3116,-2.3068,-2.3125,-2.3084,-2.3089,-2.3139,-2.3197,-2.3206,-2.3214,-2.3309,-2.3329,-2.3346,0,0,0,0,0,0,-2.3224,-2.3187,-2.3154,-2.3215,-2.321,-2.318,-2.3217,-2.3176,-2.3183,-2.3174,-2.312,-2.3116,-2.3171,-2.316,-2.3115,-2.3218,-2.3153,-2.3163,-2.3224,-2.3243,-2.3258,-2.326,-2.3031,0,0,0,0,0,-2.3254,-2.3276,-2.3242,-2.3299,-2.3298,-2.3259,-2.3268,-2.3235,-2.3227,-2.3224,-2.3205,-2.32,-2.3216,-2.3229,-2.3242,-2.3313,-2.3308,-2.335,-2.3366,-2.3379,-2.3388,-2.3426,-2.3445,-2.3245,-2.3245,-2.3244,0,0,-2.3314,-2.3297,-2.3314,-2.3319,-2.3311,-2.3337,-2.3257,-2.3287,-2.3306,-2.3229,-2.3272,-2.3258,-2.3249,-2.3309,-2.3334,-2.33,-2.3442,-2.3389,-2.34,-2.3402,-2.3437,-2.3456,-2.3473,-2.325,-2.3249,-2.3248,0,0,-2.3438,-2.3427,-2.3474,-2.3467,-2.3456,-2.3429,-2.3441,-2.3417,-2.3405,-2.3447,-2.339,-2.3412,-2.3442,-2.3438,-2.344,-2.3564,-2.352,-2.357,-2.3651,-2.3689,-2.3705,-2.3718,-2.3764,-2.3781,-2.3579,-2.3579,-2.3579,0,-2.3515,-2.3551,-2.3503,-2.3537,-2.3542,-2.3473,-2.3521,-2.3517,-2.3511,-2.3516,-2.3479,-2.3515,-2.3504,-2.3563,-2.3593,-2.3597,-2.3609,-2.3572,-2.3706,-2.372,-2.3732,-2.3775,-2.3792,-2.3585,-2.3585,-2.3584,-2.3583,0,-2.3647,-2.3673,-2.3712,-2.3709,-2.3717,-2.3758,-2.3717,-2.3732,-2.3699,-2.3676,-2.3721,-2.3705,-2.3715,-2.3726,-2.3694,-2.3781,-2.3761,-2.3716,-2.3649,-2.3758,-2.3797,-2.3813,-2.3594,-2.3592,-2.359,-2.3589,0,0,-2.3834,-2.3804,-2.3819,-2.3817,-2.38,-2.382,-2.3858,-2.3867,-2.3881,-2.388,-2.3911,-2.3939,-2.3897,-2.3899,-2.3866,-2.3899,-2.4001,-2.385,-2.3849,-2.388,-2.4097,-2.4132,-2.4152,-2.3971,-2.3974,-2.3976,-2.4098,0,-2.3954,-2.4017,-2.3975,-2.4046,-2.407,-2.4006,-2.4039,-2.4033,-2.4013,-2.4031,-2.4009,-2.403,-2.3972,-2.3974,-2.4004,-2.3982,-2.4044,-2.3972,-2.4001,-2.4003,-2.4007,-2.4172,-2.4209,-2.4325,-2.4113,-2.4116,-2.4118,0,-2.4101,-2.4107,-2.418,-2.4159,-2.4168,-2.4199,-2.4205,-2.4222,-2.4214,-2.4197,-2.4201,-2.4159,-2.4196,-2.4131,-2.4182,-2.4134,-2.4143,-2.4135,-2.4138,-2.414,-2.4068,-2.418,-2.4361,-2.4379,-2.4141,-2.414,-2.4138,0,-2.4233,-2.4258,-2.4305,-2.4305,-2.4282,-2.4305,-2.4297,-2.4285,-2.4294,-2.4299,-2.4304,-2.4314,-2.432,-2.4328,-2.4291,-2.4246,-2.4348,-2.4278,-2.4336,-2.4337,-2.4361,-2.436,-2.4547,-2.4365,-2.4365,-2.4365,-2.4364,0,-2.4371,-2.4419,-2.4364,-2.4393,-2.4445,-2.4397,-2.445,-2.4434,-2.4425,-2.4451,-2.4395,-2.4421,-2.4369,-2.439,-2.436,-2.4408,-2.4411,-2.4399,-2.4391,-2.4405,-2.4407,-2.4411,-2.4402,-2.4369,-2.4368,-2.4367,-2.4366,0,-2.4526,-2.4491,-2.4539,-2.4513,-2.4508,-2.4548,-2.4526,-2.4552,-2.4528,-2.4562,-2.4567,-2.4531,-2.4552,-2.4515,-2.4532,-2.4512,-2.4579,-2.4558,-2.4582,-2.4577,-2.4637,-2.4632,-2.4834,-2.4859,-2.466,-2.4662,-2.4663,0,-2.4618,-2.4653,-2.4631,-2.4645,-2.4639,-2.4661,-2.467,-2.4624,-2.4636,-2.463,-2.4657,-2.4674,-2.4685,-2.4723,-2.4698,-2.4711,-2.469,-2.476,-2.4692,-2.4705,-2.4693,-2.4692,-2.4696,-2.4775,-2.4777,-2.4779,-2.4781,0,-2.4784,-2.4765,-2.478,-2.4789,-2.4801,-2.4806,-2.4807,-2.4821,-2.4772,-2.4788,-2.481,-2.4818,-2.4836,-2.4854,-2.4861,-2.4852,-2.481,-2.4802,-2.4817,-2.4832,-2.4845,-2.484,-2.4622,-2.4798,-2.4796,-2.4795,-2.4794,-2.4793,-2.4911,-2.494,-2.4929,-2.4948,-2.4944,-2.4946,-2.497,-2.495,-2.4967,-2.4977,-2.4949,-2.4978,-2.497,-2.4975,-2.4971,-2.4993,-2.4962,-2.4983,-2.4988,-2.4994,-2.5004,-2.484,-2.4994,-2.4994,-2.4993,-2.4993,-2.4992,0,-2.5076,-2.5066,-2.5083,-2.5087,-2.5102,-2.5059,-2.5058,-2.5074,-2.5099,-2.5095,-2.5107,-2.5133,-2.515,-2.5127,-2.514,-2.5163,-2.5143,-2.5168,-2.5166,-2.5165,-2.503,-2.5017,-2.5183,-2.5183,-2.5183,-2.5183,-2.5183,-2.5183,-2.5163,-2.521,-2.519,-2.5235,-2.5225,-2.5252,-2.5256,-2.5258,-2.5255,-2.5286,-2.53,-2.5284,-2.5273,-2.5285,-2.53,-2.5292,-2.5301,-2.5333,-2.5319,-2.5193,-2.5175,-2.5157,-2.5144,-2.5334,-2.5335,-2.5452,-2.5453,-2.5454]},{"header":{"parameterUnit":"m.s-1","parameterCategory":1,"la1":30.2991,"la2":30.254,"lo1":-89.0895,"lo2":-89.0444,"dy":0.0017,"dx":0.0017,"nx":28,"ny":28,"refTime":"2024-12-17T03:00:00:Z","depth":0,"parameterNumber":3,"parameterNumberName":"V-component_of_WINDS"},"data":[0,0,0,0,0,0,0,0,0,0,0,0,0,0,0,0,0,0,0,0,0,0,0,0,0,0,0,0,0,0,0,0,0,0,0,0,0,0,0,0,0,0,0,0,0,0,0,0,0,0,0,0,0,0,0,0,0,0,-1.3774,-1.3775,0,-1.3862,-1.3863,-1.3864,-1.3866,-1.3865,-1.3864,-1.3863,-1.3953,-1.3956,-1.3959,0,0,0,0,0,0,0,0,0,0,0,0,0,-1.3609,-1.3612,-1.3774,-1.3775,-1.3776,-1.3861,-1.3863,-1.3864,-1.3866,-1.3865,-1.3863,-1.3862,-1.3952,-1.3956,-1.396,0,0,0,0,0,0,0,0,0,0,0,0,0,-1.3687,-1.3613,-1.3774,-1.3788,-1.379,-1.3861,-1.3863,-1.3864,-1.3866,-1.3865,-1.3863,-1.3861,-1.395,-1.3955,-1.396,-1.4024,0,0,-1.3976,-1.3978,0,0,0,0,0,0,0,0,-1.3683,-1.3693,-1.3785,-1.3787,-1.3789,-1.3851,-1.3838,-1.3918,-1.3867,-1.3837,-1.3863,-1.3861,-1.392,-1.3928,-1.3948,-1.4029,-1.4032,-1.3976,-1.398,-1.3982,-1.3983,0,0,0,0,0,0,0,-1.3677,-1.3689,-1.3809,-1.3786,-1.3789,-1.3789,-1.3799,-1.3853,-1.3887,-1.384,-1.384,-1.385,-1.3921,-1.3943,-1.395,-1.4034,-1.3976,-1.3981,-1.3984,-1.3986,-1.4171,-1.4173,0,0,0,0,0,0,-1.3669,-1.3685,-1.3806,-1.3811,-1.3731,-1.3794,-1.3804,-1.3833,-1.3886,-1.3893,-1.3852,-1.385,-1.3935,-1.3944,-1.3953,-1.4032,-1.3982,-1.3986,-1.3989,-1.4169,-1.4171,-1.4173,0,0,0,0,0,0,-1.3666,-1.368,-1.3802,-1.3748,-1.3764,-1.3798,-1.3831,-1.3836,-1.3857,-1.3895,-1.3901,-1.3867,-1.3934,-1.3946,-1.4006,-1.4035,-1.3989,-1.3993,-1.4167,-1.417,-1.4172,-1.4189,0,0,0,0,0,0,-1.3661,-1.3679,-1.3703,-1.3749,-1.3767,-1.3855,-1.3832,-1.3838,-1.3866,-1.3865,-1.3912,-1.3918,-1.3934,-1.3999,-1.4012,-1.4041,-1.3997,-1.4165,-1.4168,-1.4172,-1.4186,-1.4192,-1.4197,0,0,0,0,0,-1.3655,-1.3705,-1.3705,-1.3719,-1.3798,-1.3856,-1.3866,-1.3883,-1.3868,-1.3893,-1.3918,-1.3916,-1.4029,-1.4005,-1.4019,-1.4051,-1.4163,-1.4167,-1.4171,-1.4184,-1.4191,-1.4197,0,0,0,0,0,0,-1.3662,-1.3711,-1.3711,-1.3777,-1.3813,-1.3856,-1.3889,-1.389,-1.3931,-1.3928,-1.3948,-1.3958,-1.4018,-1.4041,-1.4013,-1.4115,-1.4094,-1.4102,-1.4099,-1.4106,-1.4111,-1.4105,-1.4002,0,0,0,0,0,-1.3671,-1.3714,-1.3754,-1.3809,-1.3826,-1.3854,-1.388,-1.389,-1.3927,-1.3942,-1.3971,-1.4008,-1.4051,-1.408,-1.4122,-1.4189,-1.4199,-1.4218,-1.4223,-1.4227,-1.4234,-1.4271,-1.428,-1.4187,-1.4187,-1.4187,0,0,-1.3691,-1.3723,-1.3749,-1.3811,-1.3839,-1.3883,-1.3867,-1.3914,-1.3947,-1.395,-1.4009,-1.4031,-1.4073,-1.4137,-1.4166,-1.4157,-1.4261,-1.4233,-1.4236,-1.424,-1.4276,-1.4285,-1.4293,-1.419,-1.4189,-1.4189,0,0,-1.3749,-1.3778,-1.3826,-1.3855,-1.3898,-1.3916,-1.3927,-1.3971,-1.3986,-1.4045,-1.4048,-1.4087,-1.4162,-1.4192,-1.4217,-1.4285,-1.4286,-1.4298,-1.4327,-1.4363,-1.4371,-1.4377,-1.4402,-1.4411,-1.4304,-1.4304,-1.4304,0,-1.3769,-1.3835,-1.3851,-1.3898,-1.3925,-1.3929,-1.3978,-1.4005,-1.406,-1.4079,-1.4067,-1.4161,-1.4189,-1.426,-1.4277,-1.4297,-1.4311,-1.4294,-1.4368,-1.4375,-1.4381,-1.4405,-1.4415,-1.4305,-1.4305,-1.4305,-1.4305,0,-1.3856,-1.3902,-1.3936,-1.3988,-1.4019,-1.4067,-1.4091,-1.412,-1.4127,-1.4146,-1.4206,-1.424,-1.429,-1.4307,-1.4314,-1.4379,-1.4372,-1.4364,-1.4344,-1.4391,-1.4414,-1.4423,-1.4307,-1.4307,-1.4306,-1.4306,0,0,-1.3923,-1.3983,-1.3995,-1.4019,-1.4066,-1.4102,-1.415,-1.4198,-1.4223,-1.426,-1.4301,-1.4363,-1.4356,-1.4384,-1.4395,-1.4426,-1.4479,-1.4415,-1.4416,-1.4426,-1.4553,-1.4559,-1.457,-1.4479,-1.4481,-1.4482,-1.4549,0,-1.3987,-1.4072,-1.4088,-1.4162,-1.4205,-1.4208,-1.425,-1.4284,-1.4303,-1.4341,-1.4362,-1.4407,-1.4394,-1.4411,-1.4442,-1.4466,-1.4505,-1.4461,-1.4518,-1.4519,-1.4508,-1.4581,-1.4589,-1.4651,-1.4558,-1.456,-1.4561,0,-1.4074,-1.4113,-1.4191,-1.4233,-1.4251,-1.4288,-1.4333,-1.437,-1.4408,-1.442,-1.4451,-1.4457,-1.4507,-1.4483,-1.4552,-1.4522,-1.4546,-1.4561,-1.4564,-1.4571,-1.4544,-1.4591,-1.4671,-1.4681,-1.4575,-1.4574,-1.4573,0,-1.4115,-1.4187,-1.4244,-1.4264,-1.4313,-1.4339,-1.4361,-1.4397,-1.4425,-1.4464,-1.4482,-1.4526,-1.4551,-1.4585,-1.4603,-1.4584,-1.4671,-1.4649,-1.4683,-1.4683,-1.4702,-1.4701,-1.4788,-1.4716,-1.4716,-1.4715,-1.4715,0,-1.4186,-1.4234,-1.4263,-1.4298,-1.4352,-1.4369,-1.4422,-1.4443,-1.4475,-1.4514,-1.4519,-1.4556,-1.4578,-1.4617,-1.4632,-1.4687,-1.4698,-1.4709,-1.4712,-1.4709,-1.4708,-1.4726,-1.4722,-1.4718,-1.4717,-1.4717,-1.4716,0,-1.4242,-1.4264,-1.4325,-1.4367,-1.4378,-1.4416,-1.4451,-1.4485,-1.4504,-1.4553,-1.4565,-1.4595,-1.4642,-1.4663,-1.4721,-1.4731,-1.4794,-1.4794,-1.4781,-1.4782,-1.4815,-1.4812,-1.4918,-1.4933,-1.485,-1.4851,-1.4851,0,-1.4286,-1.4323,-1.4368,-1.4395,-1.4417,-1.446,-1.4488,-1.4505,-1.4534,-1.458,-1.4608,-1.4655,-1.4694,-1.4768,-1.4795,-1.4839,-1.4841,-1.4875,-1.4848,-1.4843,-1.4842,-1.484,-1.4844,-1.488,-1.4881,-1.4881,-1.4882,0,-1.4363,-1.4371,-1.4411,-1.4455,-1.4488,-1.4524,-1.4559,-1.458,-1.4603,-1.4635,-1.4683,-1.4713,-1.4772,-1.4818,-1.4864,-1.4886,-1.4888,-1.489,-1.49,-1.4898,-1.4889,-1.4895,-1.4795,-1.4888,-1.4887,-1.4887,-1.4886,-1.4886,-1.4415,-1.4448,-1.4485,-1.4529,-1.4557,-1.4589,-1.4623,-1.4645,-1.4685,-1.4735,-1.4742,-1.4793,-1.483,-1.4891,-1.4915,-1.4956,-1.4948,-1.4962,-1.4966,-1.497,-1.4972,-1.4882,-1.4964,-1.4964,-1.4964,-1.4963,-1.4963,0,-1.4492,-1.4516,-1.4556,-1.4605,-1.464,-1.4637,-1.4675,-1.4705,-1.475,-1.4783,-1.4821,-1.4876,-1.4921,-1.495,-1.4996,-1.5022,-1.5024,-1.5034,-1.5032,-1.5038,-1.4977,-1.4963,-1.5031,-1.5031,-1.5031,-1.5031,-1.5031,-1.5031,-1.4537,-1.4593,-1.4605,-1.4675,-1.4698,-1.4748,-1.477,-1.48,-1.4827,-1.4888,-1.4925,-1.4944,-1.4976,-1.5023,-1.5065,-1.5072,-1.5089,-1.5099,-1.5106,-1.5049,-1.5042,-1.5035,-1.5023,-1.5102,-1.5102,-1.5164,-1.5165,-1.5165]}]]